User: anonymous   Login
Location: Allos
(44.2333°N, 6.6333°E)
Time: 23:01:03
(UTC+00:00)
Language:

deb Kosmos-249 - Orbit

View from above orbital plane
View from above orbital plane
View from above satellite
View from above satellite

Ground track
Ground track

The orbit data is extracted from the following two-line orbital elements,

1 18551U 68091DF  21175.32667289  .00000082  00000-0  82521-4 0  9995
2 18551  62.2943 260.2327 0762114 139.2360 339.1936 13.29221205403991
Epoch (UTC): 24 June 2021 07:50:24
Eccentricity: 0.0762114
inclination: 62.2943°
perigee height: 576 km
apogee height: 1723 km
right ascension of ascending node: 260.2327°
argument of perigee: 139.2360°
revolutions per day: 13.29221205
mean anomaly at epoch: 339.1936°
orbit number at epoch: 40399

The dashed part of the orbit path shows where the satellite is in the earth's shadow,  

DLR